Meteo pe oră la Abegondo

Astăzi, 5 August, Joi

Timp Temperatura Precipitaţii Vânt Presiune Umiditate
00:00 +15°C° 0 mm 2 m/s 746 mmHg 97%
01:00 +15°C° 0 mm 2 m/s 746 mmHg 97%
02:00 +15°C° 0 mm 2 m/s 746 mmHg 96%
03:00 +14°C° 0 mm 3 m/s 745 mmHg 94%
04:00 +16°C° 0 mm 3 m/s 745 mmHg 92%
05:00 +16°C° 0 mm 3 m/s 745 mmHg 91%
06:00 +17°C° 0 mm 3 m/s 745 mmHg 88%
07:00 +18°C° 0 mm 3 m/s 745 mmHg 85%
08:00 +18°C° 0 mm 3 m/s 745 mmHg 83%
09:00 +19°C° 0.1 mm 3 m/s 745 mmHg 82%
10:00 +20°C° 0.1 mm 4 m/s 745 mmHg 81%
11:00 +21°C° 0.1 mm 4 m/s 745 mmHg 80%
12:00 +22°C° 0 mm 4 m/s 745 mmHg 71%
13:00 +23°C° 0 mm 4 m/s 745 mmHg 62%
14:00 +25°C° 0 mm 4 m/s 745 mmHg 53%
15:00 +23°C° 0 mm 4 m/s 745 mmHg 56%
16:00 +22°C° 0 mm 4 m/s 745 mmHg 59%
17:00 +21°C° 0 mm 3 m/s 745 mmHg 61%
18:00 +19°C° 0 mm 3 m/s 745 mmHg 73%
19:00 +17°C° 0 mm 2 m/s 745 mmHg 84%
20:00 +14°C° 0 mm 1 m/s 746 mmHg 95%
21:00 +14°C° 0 mm 1 m/s 745 mmHg 96%
22:00 +14°C° 0 mm 1 m/s 745 mmHg 96%
23:00 +13°C° 0 mm 1 m/s 745 mmHg 97%

Mâine, 6 August, Vineri

Timp Temperatura Precipitaţii Vânt Presiune Umiditate
00:00 +13°C° 0 mm 1 m/s 745 mmHg 96%
01:00 +13°C° 0 mm 1 m/s 744 mmHg 94%
02:00 +13°C° 0 mm 1 m/s 744 mmHg 93%
03:00 +14°C° 0 mm 1 m/s 744 mmHg 91%
04:00 +14°C° 0 mm 1 m/s 744 mmHg 88%
05:00 +15°C° 0 mm 1 m/s 743 mmHg 86%
06:00 +16°C° 0 mm 1 m/s 743 mmHg 80%
07:00 +17°C° 0 mm 2 m/s 744 mmHg 73%
08:00 +18°C° 0 mm 2 m/s 744 mmHg 67%
09:00 +19°C° 0 mm 2 m/s 743 mmHg 62%
10:00 +20°C° 0 mm 2 m/s 743 mmHg 58%
11:00 +21°C° 0 mm 2 m/s 743 mmHg 54%
12:00 +22°C° 0 mm 3 m/s 742 mmHg 51%
13:00 +24°C° 0 mm 3 m/s 742 mmHg 48%
14:00 +24°C° 0 mm 3 m/s 741 mmHg 46%
15:00 +24°C° 0 mm 3 m/s 741 mmHg 49%
16:00 +22°C° 0 mm 3 m/s 741 mmHg 53%
17:00 +21°C° 0 mm 3 m/s 740 mmHg 56%
18:00 +20°C° 0 mm 3 m/s 741 mmHg 65%
19:00 +18°C° 0 mm 3 m/s 741 mmHg 74%
20:00 +16°C° 0 mm 3 m/s 741 mmHg 83%
21:00 +16°C° 0 mm 3 m/s 741 mmHg 86%
22:00 +14°C° 0 mm 3 m/s 740 mmHg 90%
23:00 +14°C° 0 mm 3 m/s 740 mmHg 94%

Poimâine, 7 August, Sâmbătă

Timp Temperatura Precipitaţii Vânt Presiune Umiditate
00:00 +14°C° 0.1 mm 3 m/s 740 mmHg 94%
01:00 +14°C° 0.1 mm 3 m/s 740 mmHg 95%
02:00 +14°C° 0.1 mm 3 m/s 740 mmHg 95%
03:00 +14°C° 0.1 mm 3 m/s 740 mmHg 93%
04:00 +14°C° 0.1 mm 3 m/s 740 mmHg 92%
05:00 +14°C° 0.1 mm 3 m/s 741 mmHg 90%
06:00 +16°C° 0.2 mm 3 m/s 741 mmHg 85%
07:00 +17°C° 0.2 mm 3 m/s 741 mmHg 80%
08:00 +18°C° 0.2 mm 3 m/s 741 mmHg 76%
09:00 +19°C° 0.5 mm 3 m/s 742 mmHg 73%
10:00 +19°C° 0.5 mm 3 m/s 742 mmHg 70%
11:00 +20°C° 0.5 mm 3 m/s 742 mmHg 68%
12:00 +21°C° 0.1 mm 3 m/s 743 mmHg 63%
13:00 +21°C° 0.1 mm 3 m/s 743 mmHg 59%
14:00 +22°C° 0.1 mm 3 m/s 743 mmHg 55%
15:00 +21°C° 0.1 mm 3 m/s 743 mmHg 58%
16:00 +20°C° 0.1 mm 3 m/s 744 mmHg 62%
17:00 +19°C° 0.1 mm 3 m/s 744 mmHg 66%
18:00 +17°C° 0 mm 2 m/s 744 mmHg 76%
19:00 +15°C° 0 mm 1 m/s 745 mmHg 87%
20:00 +14°C° 0 mm 1 m/s 745 mmHg 97%
21:00 +13°C° 0 mm 1 m/s 746 mmHg 97%
22:00 +13°C° 0 mm 1 m/s 746 mmHg 98%
23:00 +13°C° 0 mm 1 m/s 746 mmHg 98%

8 August, Duminică

Timp Temperatura Precipitaţii Vânt Presiune Umiditate
00:00 +13°C° 0 mm 1 m/s 746 mmHg 98%
01:00 +12°C° 0 mm 1 m/s 746 mmHg 98%
02:00 +12°C° 0 mm 1 m/s 746 mmHg 98%
03:00 +13°C° 0 mm 1 m/s 746 mmHg 96%
04:00 +13°C° 0 mm 1 m/s 746 mmHg 94%
05:00 +14°C° 0 mm 1 m/s 746 mmHg 93%
06:00 +15°C° 0 mm 1 m/s 746 mmHg 83%
07:00 +18°C° 0 mm 1 m/s 747 mmHg 74%
08:00 +20°C° 0 mm 1 m/s 747 mmHg 64%
09:00 +21°C° 0 mm 1 m/s 747 mmHg 58%
10:00 +22°C° 0 mm 1 m/s 747 mmHg 53%
11:00 +24°C° 0 mm 2 m/s 747 mmHg 47%
12:00 +23°C° 0 mm 2 m/s 747 mmHg 48%
13:00 +23°C° 0 mm 2 m/s 747 mmHg 49%
14:00 +22°C° 0 mm 3 m/s 747 mmHg 50%
15:00 +21°C° 0 mm 3 m/s 747 mmHg 54%
16:00 +20°C° 0 mm 2 m/s 747 mmHg 58%
17:00 +19°C° 0 mm 2 m/s 747 mmHg 62%
18:00 +17°C° 0 mm 2 m/s 748 mmHg 73%
19:00 +16°C° 0 mm 1 m/s 748 mmHg 84%
20:00 +13°C° 0 mm 0 m/s 748 mmHg 95%
21:00 +13°C° 0 mm 1 m/s 748 mmHg 96%
22:00 +13°C° 0 mm 1 m/s 748 mmHg 97%
23:00 +13°C° 0 mm 1 m/s 749 mmHg 97%

9 August, Luni

Timp Temperatura Precipitaţii Vânt Presiune Umiditate
00:00 +13°C° 0 mm 1 m/s 748 mmHg 97%
01:00 +12°C° 0 mm 1 m/s 748 mmHg 96%
02:00 +12°C° 0 mm 1 m/s 748 mmHg 96%
03:00 +12°C° 0 mm 1 m/s 748 mmHg 95%
04:00 +12°C° 0 mm 1 m/s 748 mmHg 94%
05:00 +12°C° 0 mm 1 m/s 748 mmHg 92%
06:00 +15°C° 0 mm 1 m/s 748 mmHg 78%
07:00 +19°C° 0 mm 1 m/s 749 mmHg 64%
08:00 +22°C° 0 mm 1 m/s 749 mmHg 50%
09:00 +24°C° 0 mm 1 m/s 749 mmHg 47%
10:00 +25°C° 0 mm 2 m/s 749 mmHg 43%
11:00 +27°C° 0 mm 2 m/s 749 mmHg 39%
12:00 +27°C° 0 mm 3 m/s 749 mmHg 40%
13:00 +27°C° 0 mm 3 m/s 748 mmHg 41%
14:00 +27°C° 0 mm 3 m/s 748 mmHg 42%
15:00 +26°C° 0 mm 3 m/s 748 mmHg 47%
16:00 +25°C° 0 mm 3 m/s 748 mmHg 52%
17:00 +22°C° 0 mm 3 m/s 748 mmHg 58%
18:00 +20°C° 0 mm 2 m/s 748 mmHg 69%
19:00 +18°C° 0 mm 2 m/s 748 mmHg 81%
20:00 +16°C° 0 mm 2 m/s 748 mmHg 93%
21:00 +15°C° 0 mm 2 m/s 748 mmHg 93%
22:00 +15°C° 0 mm 1 m/s 748 mmHg 93%
23:00 +15°C° 0 mm 1 m/s 748 mmHg 94%

10 August, Marţi

Timp Temperatura Precipitaţii Vânt Presiune Umiditate
00:00 +14°C° 0 mm 1 m/s 748 mmHg 93%
01:00 +14°C° 0 mm 1 m/s 747 mmHg 93%
02:00 +14°C° 0 mm 1 m/s 747 mmHg 93%
03:00 +14°C° 0 mm 1 m/s 747 mmHg 92%
04:00 +14°C° 0 mm 1 m/s 747 mmHg 91%
05:00 +15°C° 0 mm 1 m/s 747 mmHg 91%
06:00 +19°C° 0 mm 1 m/s 747 mmHg 76%
07:00 +23°C° 0 mm 1 m/s 747 mmHg 62%
08:00 +24°C° 0 mm 0 m/s 747 mmHg 48%
09:00 +28°C° 0 mm 1 m/s 747 mmHg 43%
10:00 +30°C° 0 mm 1 m/s 747 mmHg 38%
11:00 +31°C° 0 mm 2 m/s 746 mmHg 33%
12:00 +31°C° 0 mm 2 m/s 746 mmHg 35%
13:00 +31°C° 0 mm 2 m/s 746 mmHg 36%
14:00 +30°C° 0 mm 3 m/s 746 mmHg 37%
15:00 +29°C° 0 mm 2 m/s 746 mmHg 44%
16:00 +27°C° 0 mm 2 m/s 746 mmHg 51%
17:00 +25°C° 0 mm 2 m/s 746 mmHg 58%
18:00 +23°C° 0 mm 2 m/s 747 mmHg 69%
19:00 +21°C° 0 mm 1 m/s 747 mmHg 80%
20:00 +18°C° 0 mm 1 m/s 748 mmHg 91%
21:00 +18°C° 0 mm 1 m/s 747 mmHg 92%
22:00 +18°C° 0 mm 1 m/s 747 mmHg 93%
23:00 +18°C° 0 mm 1 m/s 747 mmHg 94%
Arată mai mult

Formular de consimțământ

Meteoprog și furnizorii noștri de servicii pot stoca și accesa date personale, precum cookies, identificatori de dispozitiv sau alte tehnologii similare pe dispozitivul dumneavoastră și procesa astfel de date pentru a personaliza conținutul și reclamele, dar și pentru a oferi caracteristici de social media și pentru a analiza traficul.

  • Stocarea și/sau accesarea informațiilor pe dispozitivul dumneavoastră

    Cookies, identificatori de dispozitiv sau alte informații pot fi stocate sau accesate pe dispozitiv în scopurile indicate mai sus.

  • Reclame și conținut personalizat, evaluarea reclamelor și a conținutului, informații despre audiențe și dezvoltarea produselor

    Reclamele și conținutul pot fi personalizate pe baza unui profil. Pot fi adăugate date suplimentare pentru a personaliza mai bine reclamele și conținutul. Performanța reclamelor și conținutului poate fi măsurată. Pot fi obținute informații despre utilizatorii care au văzut reclamele și conținutul. Aceste date pot fi utilizate pentru a dezvolta sau îmbunătăți experiența utilizatorilor, sistemele și software-ul.

Dând clic pe ‘Sunt de acord’, permiteți utilizarea cookie-urilor menționate, a identificatorilor de dispozitiv, balizelor web sau altor tehnologii similare. Setările pot fi modificate din browser-ul dispozitivului dumneavoastră.

În anumite scopuri, interesele legitime pot prima asupra consimțământului. Puteți citi mai multe informații în acest sens în Politica privind Confidențialitatea Datelor și Cookie.